QPF
0.00 0.00 0.00 0.00 0.00 0.00 0.00 0.00 0.00 0.00 0.00 0.00 0.00 0.00 0.00 0.00 0.00 0.00 0.00 0.00 0.00 0.00 0.00 0.00 0.00 0.00 0.00 0.00 0.00 0.00 0.00 0.00 0.00 0.00 0.00 0.00 0.00 0.00 0.00 0.00 0.00 0.00 0.00 0.00 0.00 0.00 0.00
0.00 0.00 0.00 0.00 0.00 0.00 0.00 0.00 0.00 0.00 0.00 0.00 0.00 0.00 0.00 0.00 0.00 0.00 0.00 0.00 0.00 0.00 0.00 0.00 0.00 0.00 0.00 0.00 0.00 0.00 0.00 0.00 0.00 0.00 0.00 0.00 0.00 0.00 0.00 0.00 0.00 0.00 0.00 0.00 0.00 0.00 0.00
0.00 0.00 0.00 0.00 0.00 0.00 0.00 0.00 0.00 0.00 0.00 0.00 0.00 0.00 0.00 0.00 0.00 0.00 0.00 0.00 0.00 0.00 0.00 0.00 0.00 0.00 0.00 0.00 0.00 0.00 0.00 0.00 0.00 0.00 0.00 0.00 0.00 0.00 0.00 0.00 0.00 0.00 0.00 0.00 0.00 0.00 0.00
0.00 0.00 0.00 0.00 0.00 0.00 0.00 0.00 0.00 0.00 0.00 0.00 0.00 0.00 0.00 0.00 0.00 0.00 0.00 0.00 0.00 0.00 0.00 0.00 0.00 0.00 0.00 0.00 0.00 0.00 0.00 0.00 0.00 0.00 0.00 0.00 0.00 0.00 0.00 0.00 0.00 0.00 0.00 0.00 0.00 0.00 0.00
0.00 0.00 0.00 0.00 0.00 0.00 0.00 0.00 0.00 0.00 0.00 0.00 0.00 0.00 0.00 0.00 0.00 0.00 0.00 0.00 0.00 0.00 0.00 0.00 0.00 0.00 0.00 0.00 0.00 0.00 0.00 0.00 0.00 0.00 0.00 0.00 0.00 0.00 0.00 0.00 0.00 0.00 0.00 0.00 0.00 0.00 0.00
0.00 0.00 0.00 0.01 0.01 0.00 0.00 0.00 0.00 0.00 0.00 0.00 0.00 0.00 0.00 0.00 0.00 0.00 0.00 0.00 0.00 0.00 0.00 0.00 0.00 0.00 0.00 0.00 0.00 0.00 0.00 0.00 0.00 0.00 0.00 0.00 0.00 0.00 0.00 0.00 0.00 0.00 0.00 0.00 0.00 0.00 0.00
0.00 0.01 0.01 0.00 0.00 0.00 0.00 0.00 0.01 0.00 0.00 0.00 0.00 0.00 0.00 0.00 0.00 0.00 0.00 0.00 0.00 0.00 0.00 0.00 0.00 0.00 0.00 0.00 0.00 0.00 0.00 0.00 0.00 0.01 0.00 0.00 0.00 0.00 0.00 0.00 0.00 0.00 0.00 0.00 0.00 0.00 0.00
0.00 0.00 0.00 0.00 0.00 0.00 0.00 0.00 0.01 0.00 0.00 0.00 0.00 0.00 0.00 0.00 0.00 0.00 0.00 0.00 0.00 0.00 0.00 0.00 0.00 0.00 0.00 0.00 0.00 0.00 0.00 0.00 0.00 0.05 0.02 0.00 0.00 0.00 0.00 0.00 0.00 0.00 0.00 0.00 0.00 0.00 0.00
0.00 0.00 0.00 0.00 0.00 0.00 0.01 0.01 0.00 0.00 0.00 0.00 0.00 0.00 0.00 0.00 0.00 0.00 0.00 0.00 0.00 0.00 0.00 0.00 0.00 0.00 0.00 0.00 0.00 0.00 0.00 0.00 0.00 0.01 0.05 0.01 0.00 0.00 0.00 0.00 0.00 0.00 0.00 0.00 0.00 0.00 0.00
0.01 0.01 0.01 0.00 0.00 0.00 0.00 0.01 0.00 0.00 0.00 0.00 0.00 0.00 0.00 0.00 0.00 0.00 0.00 0.00 0.00 0.00 0.00 0.00 0.00 0.00 0.00 0.00 0.00 0.00 0.00 0.00 0.00 0.00 0.03 0.03 0.00 0.00 0.00 0.00 0.00 0.00 0.00 0.00 0.00 0.00 0.00
0.01 0.01 0.01 0.01 0.00 0.00 0.00 0.01 0.00 0.00 0.00 0.00 0.00 0.00 0.00 0.00 0.00 0.00 0.00 0.00 0.00 0.00 0.00 0.00 0.00 0.00 0.00 0.00 0.00 0.00 0.00 0.00 0.00 0.00 0.04 0.05 0.01 0.00 0.00 0.00 0.00 0.00 0.00 0.00 0.00 0.00 0.00
0.01 0.01 0.01 0.01 0.00 0.00 0.00 0.00 0.00 0.00 0.00 0.00 0.00 0.00 0.00 0.00 0.00 0.00 0.00 0.00 0.00 0.00 0.00 0.00 0.00 0.00 0.00 0.00 0.00 0.00 0.00 0.00 0.00 0.00 0.00 0.00 0.00 0.00 0.00 0.00 0.00 0.00 0.00 0.00 0.00 0.00 0.00
0.00 0.00 0.01 0.00 0.00 0.00 0.00 0.00 0.00 0.00 0.00 0.00 0.00 0.00 0.00 0.00 0.00 0.00 0.00 0.00 0.01 0.00 0.00 0.00 0.00 0.00 0.00 0.00 0.00 0.00 0.00 0.00 0.00 0.00 0.00 0.00 0.00 0.00 0.00 0.00 0.00 0.00 0.00 0.00 0.00 0.00 0.00
0.00 0.00 0.00 0.00 0.00 0.00 0.01 0.01 0.00 0.00 0.00 0.00 0.00 0.00 0.00 0.00 0.00 0.00 0.00 0.01 0.00 0.00 0.00 0.00 0.00 0.00 0.00 0.00 0.00 0.00 0.00 0.00 0.00 0.00 0.00 0.00 0.00 0.00 0.00 0.00 0.00 0.00 0.00 0.00 0.00 0.00 0.00
0.00 0.00 0.00 0.00 0.00 0.01 0.02 0.02 0.01 0.00 0.00 0.00 0.00 0.00 0.00 0.00 0.00 0.00 0.01 0.01 0.00 0.00 0.00 0.00 0.00 0.00 0.00 0.00 0.00 0.00 0.00 0.00 0.00 0.00 0.00 0.00 0.00 0.00 0.00 0.00 0.00 0.00 0.00 0.00 0.00 0.00 0.00
0.01 0.01 0.01 0.00 0.00 0.01 0.02 0.02 0.01 0.00 0.00 0.00 0.00 0.00 0.00 0.00 0.00 0.01 0.03 0.01 0.00 0.00 0.00 0.00 0.00 0.00 0.00 0.00 0.00 0.00 0.00 0.00 0.00 0.00 0.00 0.00 0.00 0.00 0.00 0.00 0.00 0.00 0.00 0.00 0.00 0.00 0.00
0.00 0.00 0.00 0.00 0.00 0.01 0.01 0.01 0.01 0.01 0.01 0.01 0.01 0.01 0.00 0.00 0.01 0.04 0.02 0.00 0.00 0.00 0.00 0.00 0.00 0.00 0.00 0.00 0.00 0.00 0.00 0.01 0.00 0.00 0.00 0.00 0.00 0.00 0.00 0.00 0.00 0.00 0.00 0.00 0.00 0.00 0.00
0.00 0.00 0.00 0.00 0.00 0.00 0.00 0.01 0.01 0.00 0.02 0.01 0.02 0.01 0.02 0.03 0.03 0.02 0.01 0.00 0.00 0.00 0.00 0.00 0.00 0.00 0.00 0.00 0.00 0.00 0.00 0.00 0.00 0.00 0.00 0.00 0.00 0.00 0.00 0.00 0.00 0.00 0.00 0.00 0.01 0.00 0.00
0.01 0.00 0.01 0.00 0.00 0.00 0.01 0.02 0.03 0.02 0.02 0.05 0.05 0.01 0.02 0.11 0.05 0.02 0.01 0.00 0.00 0.00 0.00 0.00 0.00 0.00 0.00 0.00 0.00 0.00 0.00 0.00 0.00 0.00 0.00 0.00 0.00 0.00 0.01 0.02 0.00 0.00 0.00 0.00 0.00 0.03 0.05
0.01 0.01 0.00 0.00 0.00 0.01 0.02 0.01 0.02 0.02 0.02 0.06 0.10 0.05 0.02 0.07 0.02 0.03 0.04 0.02 0.00 0.00 0.00 0.00 0.00 0.00 0.00 0.00 0.00 0.00 0.00 0.00 0.00 0.00 0.00 0.00 0.00 0.00 0.01 0.04 0.02 0.01 0.00 0.00 0.00 0.05 0.04
0.00 0.01 0.00 0.01 0.01 0.01 0.02 0.02 0.01 0.02 0.03 0.07 0.09 0.02 0.05 0.06 0.01 0.01 0.03 0.06 0.03 0.00 0.00 0.00 0.00 0.00 0.00 0.00 0.00 0.00 0.00 0.00 0.00 0.00 0.00 0.00 0.01 0.02 0.00 0.00 0.00 0.01 0.01 0.00 0.01 0.02 0.02
0.01 0.01 0.00 0.01 0.02 0.01 0.01 0.01 0.02 0.02 0.05 0.10 0.06 0.02 0.03 0.03 0.04 0.04 0.02 0.01 0.02 0.03 0.01 0.01 0.00 0.00 0.00 0.00 0.00 0.00 0.01 0.02 0.01 0.00 0.00 0.02 0.02 0.00 0.00 0.00 0.00 0.00 0.00 0.04 0.00 0.00 0.00
0.01 0.01 0.01 0.00 0.00 0.00 0.01 0.02 0.04 0.05 0.07 0.09 0.03 0.03 0.09 0.07 0.03 0.04 0.06 0.01 0.00 0.00 0.01 0.02 0.02 0.01 0.01 0.01 0.01 0.00 0.01 0.02 0.01 0.00 0.00 0.01 0.01 0.06 0.02 0.00 0.00 0.00 0.00 0.00 0.01 0.00 0.00
0.01 0.01 0.01 0.01 0.01 0.01 0.00 0.01 0.03 0.05 0.06 0.05 0.04 0.06 0.09 0.04 0.03 0.03 0.02 0.03 0.02 0.00 0.00 0.00 0.02 0.05 0.06 0.01 0.00 0.00 0.00 0.00 0.00 0.00 0.00 0.00 0.00 0.04 0.05 0.02 0.01 0.00 0.00 0.00 0.00 0.00 0.00
0.00 0.01 0.01 0.01 0.02 0.02 0.01 0.01 0.02 0.04 0.06 0.07 0.05 0.11 0.09 0.04 0.02 0.01 0.02 0.02 0.02 0.01 0.01 0.01 0.03 0.06 0.06 0.03 0.01 0.00 0.00 0.00 0.00 0.00 0.00 0.00 0.00 0.03 0.03 0.05 0.02 0.01 0.00 0.00 0.00 0.00 0.00
0.00 0.00 0.00 0.01 0.01 0.01 0.01 0.01 0.02 0.02 0.05 0.07 0.06 0.06 0.21 0.10 0.01 0.01 0.01 0.01 0.03 0.03 0.02 0.02 0.04 0.01 0.01 0.03 0.02 0.01 0.02 0.03 0.02 0.01 0.00 0.00 0.00 0.01 0.02 0.01 0.00 0.00 0.00 0.00 0.00 0.00 0.00
0.02 0.03 0.04 0.03 0.01 0.01 0.00 0.01 0.01 0.01 0.02 0.05 0.05 0.05 0.12 0.15 0.00 0.03 0.05 0.04 0.04 0.04 0.04 0.06 0.07 0.01 0.01 0.03 0.03 0.02 0.03 0.07 0.08 0.06 0.03 0.01 0.01 0.00 0.01 0.01 0.00 0.00 0.00 0.00 0.00 0.04 0.00
0.04 0.09 0.14 0.19 0.17 0.08 0.02 0.00 0.00 0.01 0.02 0.05 0.04 0.05 0.08 0.07 0.00 0.00 0.00 0.00 0.02 0.06 0.09 0.09 0.04 0.02 0.01 0.02 0.02 0.03 0.06 0.06 0.04 0.06 0.05 0.01 0.01 0.01 0.00 0.01 0.00 0.00 0.00 0.02 0.05 0.01 0.00
0.03 0.07 0.10 0.14 0.16 0.12 0.07 0.01 0.00 0.01 0.01 0.03 0.04 0.04 0.06 0.06 0.00 0.00 0.00 0.00 0.01 0.02 0.08 0.09 0.04 0.11 0.06 0.02 0.03 0.06 0.06 0.05 0.02 0.05 0.08 0.07 0.00 0.01 0.00 0.00 0.00 0.00 0.01 0.02 0.00 0.01 0.01
MSLP
1022.14 1022.25 1022.16 1022.03 1021.86 1021.56 1021.49 1021.41 1021.26 1020.94 1020.98 1020.47 1020.32 1019.90 1019.54 1019.21 1018.92 1018.48 1018.12 1017.74 1017.23 1016.66 1016.30 1016.08 1015.53 1015.39 1014.23 1011.37 1008.56 1006.80 1007.28 1006.77 1006.71 1006.66 1005.97 1005.70 1004.93 1004.30 1003.79 1003.38 1003.06 1002.08 1001.40 1000.81 1000.28 999.71 999.37
1022.22 1022.20 1022.25 1022.04 1022.09 1021.58 1021.36 1021.33 1021.28 1020.89 1020.77 1020.49 1020.20 1019.76 1019.57 1019.09 1018.66 1018.19 1017.72 1017.35 1016.75 1016.18 1015.84 1015.43 1015.13 1015.20 1014.07 1010.71 1007.28 1006.26 1006.22 1006.63 1005.71 1005.55 1005.55 1005.22 1004.45 1004.01 1003.54 1003.02 1002.56 1001.83 1001.10 1000.38 999.84 999.55 999.08
1021.87 1021.88 1021.95 1022.02 1022.05 1021.78 1021.50 1021.38 1021.00 1020.76 1020.38 1020.55 1020.17 1019.84 1019.60 1019.15 1018.50 1017.89 1017.20 1016.62 1016.02 1015.44 1015.09 1014.83 1014.65 1014.22 1012.43 1008.86 1006.97 1006.57 1006.26 1006.25 1005.99 1006.15 1005.88 1005.32 1004.79 1004.13 1003.61 1002.99 1002.48 1001.89 1001.15 999.97 999.35 999.30 998.87
1021.55 1021.60 1021.65 1021.69 1021.79 1021.69 1021.59 1021.46 1021.07 1020.42 1020.25 1020.28 1020.10 1019.98 1019.45 1019.08 1018.33 1017.61 1016.95 1015.78 1014.93 1014.56 1014.41 1014.02 1013.96 1012.95 1010.59 1007.43 1006.78 1006.61 1006.26 1006.07 1006.11 1006.36 1006.21 1005.93 1005.46 1005.03 1004.35 1003.67 1003.05 1002.12 1001.13 1000.02 999.18 998.71 998.30
1021.37 1021.47 1021.29 1021.30 1021.35 1021.45 1021.42 1021.28 1021.02 1020.49 1020.15 1019.96 1019.79 1019.64 1019.33 1018.99 1018.21 1017.44 1016.31 1015.17 1013.97 1013.46 1013.63 1013.05 1012.97 1011.90 1008.66 1006.75 1006.66 1005.95 1006.10 1005.95 1005.89 1005.93 1005.94 1005.62 1006.09 1005.35 1005.11 1004.40 1003.75 1002.17 1000.84 999.62 998.92 998.09 997.39
1021.33 1021.16 1021.25 1020.96 1020.92 1020.99 1021.20 1021.00 1020.87 1020.54 1020.14 1020.01 1019.64 1019.62 1019.28 1018.83 1018.16 1017.34 1016.01 1014.40 1011.95 1012.58 1012.19 1011.88 1011.11 1010.53 1008.08 1006.27 1005.93 1005.85 1005.91 1005.81 1006.16 1006.06 1006.05 1006.20 1006.42 1005.53 1005.03 1004.37 1002.81 1001.88 1000.36 999.42 997.96 996.86 996.43
1021.23 1020.96 1021.17 1020.86 1020.67 1020.72 1020.84 1020.69 1020.54 1020.37 1020.21 1019.97 1019.67 1019.34 1019.17 1018.82 1018.17 1017.20 1016.18 1013.92 1011.57 1011.32 1010.67 1009.91 1008.84 1008.00 1006.39 1006.43 1005.79 1005.85 1005.73 1005.97 1006.43 1006.86 1006.36 1006.70 1006.17 1004.53 1004.39 1004.06 1003.24 1001.77 1000.09 998.59 997.06 996.21 995.84
1020.77 1020.78 1020.69 1020.55 1020.52 1020.53 1020.56 1020.39 1020.44 1020.17 1019.97 1019.81 1019.71 1019.32 1018.89 1018.61 1018.05 1016.99 1015.86 1013.99 1013.16 1013.30 1011.26 1009.42 1008.09 1007.37 1006.59 1006.59 1005.95 1005.79 1005.63 1005.95 1006.56 1007.23 1007.58 1006.84 1005.03 1004.61 1004.23 1003.38 1002.85 1001.89 1000.43 998.91 997.67 996.49 996.57
1020.45 1020.41 1020.42 1020.32 1020.13 1020.11 1020.17 1020.28 1020.13 1019.92 1019.90 1019.77 1019.45 1019.11 1018.94 1018.46 1017.72 1016.42 1015.05 1014.10 1012.82 1013.50 1012.25 1007.32 1005.64 1005.39 1005.47 1005.68 1005.24 1005.15 1005.31 1005.51 1006.03 1006.69 1007.53 1006.86 1004.92 1004.41 1003.45 1002.83 1002.42 1001.35 1000.18 999.10 998.18 997.13 996.60
1020.06 1020.08 1019.97 1020.06 1019.80 1019.88 1019.92 1019.90 1019.84 1019.69 1019.64 1019.64 1019.48 1019.02 1018.94 1018.39 1017.92 1015.93 1014.18 1013.56 1013.40 1013.93 1012.02 1006.16 1005.04 1004.30 1005.07 1005.30 1004.87 1004.70 1004.64 1005.21 1005.54 1006.47 1007.43 1007.21 1006.23 1004.73 1004.13 1002.39 1002.05 1000.58 999.75 999.00 998.55 998.00 997.19
1019.91 1019.75 1019.58 1019.69 1019.46 1019.73 1019.66 1019.64 1019.53 1019.38 1019.42 1019.39 1019.46 1019.10 1018.94 1018.62 1017.81 1015.98 1014.91 1013.92 1013.81 1014.20 1010.21 1004.69 1004.07 1004.04 1004.09 1004.70 1004.35 1004.04 1004.55 1005.06 1005.23 1006.24 1007.47 1006.83 1005.58 1005.13 1003.54 1002.29 1001.59 1000.52 999.36 999.11 998.85 998.58 998.16
1019.64 1019.48 1019.42 1019.37 1019.30 1019.32 1019.34 1019.32 1019.22 1019.05 1019.05 1019.03 1019.11 1019.00 1018.66 1017.81 1016.89 1015.86 1015.39 1014.67 1014.34 1013.27 1007.49 1004.01 1003.49 1003.21 1003.11 1002.94 1003.57 1003.77 1004.42 1004.88 1005.02 1005.54 1006.31 1005.80 1005.47 1004.76 1002.66 1001.47 1001.09 1000.67 999.73 999.72 999.61 999.08 998.17
1019.38 1019.18 1019.15 1019.15 1019.03 1019.01 1019.03 1019.00 1018.89 1018.75 1018.70 1018.91 1018.86 1018.80 1018.51 1018.08 1016.84 1015.81 1015.53 1014.76 1013.60 1009.97 1004.73 1003.34 1003.13 1003.00 1002.62 1002.24 1002.28 1003.19 1003.82 1004.37 1004.64 1005.05 1005.08 1005.16 1004.44 1003.33 1002.62 1001.79 1001.21 1000.96 1000.29 999.99 999.96 999.22 998.27
1018.98 1018.68 1018.70 1018.70 1018.73 1018.68 1018.54 1018.67 1018.57 1018.65 1018.45 1018.61 1018.58 1018.46 1017.67 1017.10 1016.62 1015.92 1015.97 1014.89 1011.41 1006.84 1004.19 1003.34 1003.47 1002.96 1002.39 1002.11 1002.00 1002.51 1003.16 1003.48 1004.12 1004.18 1004.26 1004.17 1003.81 1002.82 1001.76 1001.17 1000.81 1000.75 1000.57 999.83 999.60 999.44 998.45
1018.49 1018.30 1018.24 1018.35 1018.28 1018.25 1018.23 1018.30 1018.25 1018.32 1018.37 1018.35 1018.21 1017.37 1016.40 1015.77 1015.88 1015.67 1015.91 1013.57 1008.86 1006.45 1004.62 1003.68 1003.75 1002.73 1002.23 1002.15 1002.67 1001.92 1002.28 1002.55 1002.85 1003.71 1004.16 1003.63 1002.31 1001.53 1001.02 1001.06 1000.76 1001.09 1000.83 999.95 999.40 1000.08 999.49
1018.01 1017.85 1017.88 1017.97 1017.96 1017.92 1017.95 1018.00 1017.98 1017.97 1018.03 1018.12 1017.73 1016.55 1014.94 1014.63 1014.68 1015.09 1014.95 1012.02 1008.71 1006.46 1005.21 1005.07 1004.27 1002.95 1002.39 1002.15 1002.88 1002.18 1002.54 1003.62 1002.87 1003.10 1003.66 1003.21 1002.83 1001.09 1000.25 1000.27 1000.41 1000.63 1001.10 1000.89 1000.48 1000.59 999.89
1017.59 1017.59 1017.58 1017.54 1017.56 1017.56 1017.60 1017.65 1017.67 1017.64 1017.72 1017.88 1017.78 1015.88 1013.09 1012.97 1014.16 1014.66 1013.25 1011.23 1008.92 1007.39 1006.31 1005.67 1004.93 1003.99 1003.46 1003.24 1003.48 1003.25 1002.69 1003.79 1003.71 1003.71 1003.66 1003.09 1002.92 1001.82 1000.51 999.57 999.87 1000.34 1000.70 1001.56 1001.66 1000.64 999.73
1017.10 1017.09 1017.08 1017.13 1017.10 1017.11 1017.16 1017.28 1017.34 1017.28 1017.58 1017.97 1017.41 1015.38 1012.84 1013.02 1013.69 1013.43 1012.54 1011.09 1009.58 1007.24 1006.38 1006.08 1005.71 1005.17 1004.37 1004.25 1004.03 1004.12 1003.47 1003.25 1004.18 1004.42 1004.22 1003.72 1002.49 1001.71 1001.24 1000.15 999.84 1000.04 1000.10 1000.80 1001.21 1001.02 1000.47
1016.60 1016.57 1016.57 1016.57 1016.50 1016.59 1016.69 1016.81 1016.86 1017.00 1017.24 1017.16 1016.46 1014.34 1013.17 1013.60 1012.71 1012.21 1011.64 1010.64 1009.42 1007.99 1006.96 1006.32 1005.78 1005.51 1005.36 1005.04 1004.83 1004.44 1004.19 1003.73 1004.33 1004.66 1005.09 1005.22 1003.25 1002.43 1001.11 1000.52 1000.41 1000.07 1000.26 1000.15 1001.04 1002.07 1001.60
1015.94 1016.00 1015.92 1015.98 1015.95 1016.03 1016.07 1016.26 1016.29 1016.55 1016.87 1017.46 1016.81 1014.29 1012.68 1013.07 1012.38 1011.57 1010.90 1009.88 1008.90 1008.11 1007.45 1006.70 1005.84 1005.28 1005.23 1004.98 1005.12 1004.84 1004.39 1004.13 1004.63 1004.79 1005.55 1005.87 1004.84 1003.44 1001.89 1001.26 1001.88 1001.19 999.79 1000.46 1000.65 1001.65 1001.52
1015.24 1015.22 1015.27 1015.35 1015.45 1015.45 1015.56 1015.64 1015.84 1016.09 1016.54 1017.22 1016.41 1014.14 1012.55 1012.02 1011.49 1011.11 1010.78 1010.07 1008.73 1007.70 1007.34 1006.79 1006.14 1005.57 1005.42 1005.35 1005.11 1004.90 1004.92 1004.70 1004.66 1005.13 1005.52 1006.23 1005.79 1004.30 1002.77 1001.74 1000.89 1000.59 1000.17 999.49 999.91 1000.91 1000.93
1014.46 1014.48 1014.55 1014.64 1014.72 1014.81 1014.90 1015.05 1015.24 1015.65 1016.17 1016.64 1015.74 1014.24 1012.90 1011.83 1011.54 1010.86 1009.97 1009.44 1008.63 1008.18 1007.20 1006.73 1006.33 1006.03 1005.88 1005.81 1005.87 1005.61 1005.46 1005.64 1004.95 1005.14 1005.40 1006.54 1006.38 1005.52 1003.65 1002.31 1001.05 1000.15 999.80 1000.39 1000.02 998.85 998.72
1013.69 1013.66 1013.72 1013.85 1013.93 1014.05 1014.16 1014.36 1014.60 1015.05 1015.65 1015.55 1015.50 1014.50 1014.27 1012.63 1011.52 1010.49 1009.86 1008.93 1008.12 1007.79 1007.42 1007.47 1006.92 1006.72 1006.41 1006.83 1006.85 1006.93 1006.39 1007.02 1006.88 1006.50 1006.13 1006.54 1006.68 1006.39 1004.60 1003.46 1001.82 1000.32 999.38 999.25 999.83 998.13 998.12
1012.77 1012.80 1012.84 1012.88 1012.99 1013.25 1013.48 1013.61 1013.84 1014.20 1014.67 1014.86 1014.82 1014.47 1014.36 1012.53 1011.74 1010.49 1009.40 1009.04 1008.69 1007.61 1007.13 1006.88 1007.61 1007.64 1008.16 1007.79 1007.33 1006.96 1006.67 1006.54 1006.35 1006.21 1006.25 1006.30 1006.50 1006.94 1005.76 1004.64 1002.15 999.87 998.66 998.06 998.13 998.05 998.17
1011.77 1011.75 1011.80 1011.92 1012.09 1012.27 1012.58 1012.88 1013.20 1013.52 1013.91 1014.47 1014.53 1014.65 1014.01 1012.74 1011.76 1010.59 1009.67 1009.01 1008.29 1008.48 1007.53 1007.31 1007.47 1008.37 1009.04 1008.91 1008.23 1007.22 1006.55 1006.22 1005.53 1005.36 1005.41 1005.87 1006.22 1006.57 1005.91 1004.21 1002.64 1000.42 999.04 998.58 998.27 998.38 998.21
1010.59 1010.60 1010.65 1010.74 1010.97 1011.27 1011.62 1012.03 1012.38 1012.70 1013.09 1013.77 1013.92 1014.24 1014.91 1013.23 1011.23 1010.45 1009.90 1009.76 1009.50 1008.59 1008.19 1007.67 1008.12 1009.13 1009.49 1009.81 1009.27 1007.76 1006.20 1005.14 1004.19 1003.79 1003.85 1004.85 1005.46 1006.01 1005.29 1004.34 1002.49 999.90 999.49 999.13 998.93 999.21 998.81
1009.21 1009.17 1009.22 1009.40 1009.67 1010.02 1010.43 1010.94 1011.45 1011.92 1012.39 1012.99 1013.05 1013.73 1013.95 1013.27 1011.03 1010.53 1010.68 1010.62 1010.07 1009.66 1008.91 1008.31 1008.94 1009.53 1010.04 1009.86 1009.39 1007.86 1006.27 1005.37 1004.35 1003.56 1003.54 1004.12 1004.75 1004.88 1004.88 1003.98 1001.97 1000.22 999.47 999.78 1000.14 1001.78 1001.08
1007.57 1007.49 1007.51 1007.60 1007.80 1008.26 1009.02 1009.73 1010.38 1011.03 1011.61 1012.23 1012.42 1013.04 1013.40 1012.82 1011.17 1010.58 1010.30 1010.49 1010.13 1010.34 1009.84 1009.31 1009.75 1009.86 1010.37 1010.16 1009.13 1007.58 1006.16 1004.93 1004.21 1003.89 1003.64 1003.55 1004.16 1004.14 1004.16 1003.30 1001.94 1000.46 1000.20 1000.74 1002.18 1002.82 1003.17
1005.92 1005.78 1005.75 1005.77 1005.56 1006.36 1007.24 1008.48 1009.28 1010.13 1010.86 1011.78 1012.00 1012.26 1012.87 1012.88 1011.07 1010.43 1009.89 1009.82 1009.90 1010.38 1010.53 1010.01 1009.36 1010.16 1009.94 1009.77 1008.35 1007.31 1006.30 1005.04 1004.25 1003.96 1004.70 1004.53 1003.08 1003.01 1002.83 1002.18 1001.36 1000.75 1001.38 1002.28 1002.93 1003.68 1004.53
Thickness
5548 5545 5545 5546 5547 5550 5549 5548 5550 5551 5549 5554 5555 5558 5560 5563 5563 5566 5568 5571 5575 5579 5582 5581 5586 5586 5595 5615 5627 5642 5636 5638 5640 5642 5646 5645 5648 5657 5654 5666 5671 5674 5689 5701 5711 5717 5720
5534 5532 5530 5531 5530 5536 5538 5538 5537 5540 5540 5542 5544 5548 5549 5553 5556 5560 5563 5565 5569 5573 5575 5578 5581 5579 5587 5603 5636 5639 5636 5630 5638 5639 5639 5644 5645 5659 5657 5663 5664 5680 5688 5697 5707 5711 5717
5525 5522 5520 5519 5519 5522 5524 5525 5528 5530 5533 5530 5534 5536 5538 5542 5547 5552 5559 5563 5566 5570 5571 5573 5575 5579 5590 5610 5629 5630 5628 5624 5628 5625 5624 5638 5642 5646 5655 5655 5673 5674 5669 5690 5701 5706 5707
5513 5513 5512 5510 5507 5509 5510 5512 5515 5521 5522 5522 5524 5524 5530 5532 5539 5545 5550 5563 5569 5569 5568 5572 5572 5581 5593 5621 5623 5621 5623 5618 5621 5619 5620 5627 5632 5634 5640 5653 5653 5656 5669 5663 5696 5704 5712
5503 5501 5502 5501 5500 5499 5499 5499 5503 5508 5512 5514 5515 5517 5520 5523 5531 5536 5547 5557 5567 5571 5566 5572 5574 5578 5597 5620 5612 5620 5615 5608 5609 5612 5616 5622 5614 5619 5629 5628 5628 5650 5648 5667 5680 5709 5711
5491 5492 5489 5493 5492 5491 5488 5490 5491 5495 5500 5502 5506 5505 5508 5513 5521 5528 5539 5553 5574 5568 5571 5572 5579 5577 5596 5604 5611 5613 5610 5607 5598 5598 5601 5600 5596 5603 5615 5617 5617 5637 5657 5669 5681 5710 5714
5480 5482 5479 5482 5483 5482 5479 5481 5483 5485 5489 5491 5495 5498 5501 5504 5510 5518 5528 5547 5566 5572 5576 5582 5588 5593 5603 5602 5609 5600 5603 5596 5589 5581 5584 5586 5584 5596 5610 5621 5633 5648 5661 5674 5701 5719 5713
5471 5471 5472 5474 5474 5473 5473 5473 5472 5477 5480 5483 5484 5489 5493 5495 5500 5511 5521 5537 5541 5540 5554 5572 5582 5587 5596 5591 5588 5591 5599 5584 5574 5559 5562 5572 5583 5606 5617 5628 5629 5635 5647 5660 5685 5708 5699
5461 5463 5463 5463 5465 5465 5465 5463 5464 5467 5469 5471 5476 5480 5480 5484 5492 5506 5517 5522 5534 5530 5537 5580 5598 5595 5593 5592 5587 5586 5592 5586 5573 5564 5554 5560 5592 5607 5614 5620 5619 5633 5641 5658 5664 5690 5701
5455 5454 5456 5454 5457 5456 5456 5456 5456 5457 5459 5460 5463 5470 5471 5476 5483 5498 5512 5517 5518 5518 5527 5583 5588 5594 5588 5586 5581 5592 5594 5584 5575 5559 5553 5554 5576 5591 5595 5615 5623 5626 5660 5665 5664 5664 5656
5446 5448 5450 5447 5449 5445 5446 5446 5448 5449 5449 5451 5452 5457 5459 5463 5471 5488 5496 5505 5509 5505 5540 5587 5586 5594 5591 5579 5583 5585 5589 5579 5569 5557 5546 5553 5573 5575 5593 5609 5624 5630 5662 5659 5661 5656 5659
5439 5440 5440 5440 5439 5437 5436 5435 5437 5439 5439 5442 5443 5446 5450 5457 5468 5477 5481 5489 5494 5500 5537 5576 5585 5584 5584 5589 5582 5583 5576 5577 5575 5564 5556 5562 5575 5577 5599 5619 5624 5637 5646 5646 5647 5648 5630
5431 5432 5430 5429 5429 5427 5425 5425 5426 5427 5429 5428 5431 5433 5438 5442 5455 5467 5470 5479 5494 5520 5576 5572 5574 5578 5581 5582 5586 5578 5571 5565 5561 5553 5553 5559 5568 5586 5598 5599 5616 5619 5622 5612 5607 5615 5622
5422 5424 5422 5420 5417 5416 5415 5412 5412 5411 5414 5413 5416 5421 5429 5437 5443 5451 5454 5464 5499 5548 5566 5571 5567 5570 5572 5580 5581 5578 5570 5565 5567 5569 5563 5551 5550 5576 5597 5599 5603 5609 5616 5615 5596 5611 5634
5415 5415 5414 5410 5407 5405 5402 5399 5398 5395 5395 5396 5400 5411 5424 5433 5435 5438 5435 5456 5518 5536 5552 5553 5555 5559 5567 5573 5568 5578 5574 5573 5576 5568 5555 5555 5567 5592 5599 5600 5606 5598 5594 5635 5632 5628 5618
5406 5405 5402 5398 5395 5393 5389 5385 5383 5381 5378 5378 5385 5399 5421 5422 5427 5426 5423 5459 5505 5526 5535 5536 5534 5555 5557 5563 5556 5568 5562 5557 5568 5572 5570 5569 5556 5588 5599 5603 5606 5602 5615 5596 5611 5589 5594
5395 5391 5388 5385 5381 5378 5375 5371 5368 5366 5364 5363 5367 5383 5417 5419 5413 5407 5421 5460 5490 5504 5516 5517 5524 5535 5545 5545 5547 5550 5559 5549 5557 5558 5563 5572 5565 5572 5590 5593 5593 5596 5594 5594 5600 5614 5610
5382 5378 5375 5371 5367 5363 5360 5356 5353 5353 5351 5350 5355 5369 5405 5405 5396 5407 5416 5453 5470 5493 5504 5507 5513 5519 5528 5531 5534 5534 5542 5548 5550 5548 5547 5559 5570 5566 5570 5597 5605 5602 5603 5601 5589 5595 5616
5369 5365 5360 5357 5353 5349 5345 5342 5341 5341 5341 5344 5351 5378 5391 5389 5392 5409 5429 5443 5459 5473 5485 5493 5501 5510 5515 5516 5516 5526 5532 5543 5542 5540 5534 5538 5560 5558 5573 5585 5590 5590 5597 5607 5604 5594 5580
5356 5351 5346 5341 5337 5333 5332 5331 5332 5332 5331 5329 5335 5363 5386 5382 5398 5410 5421 5437 5449 5464 5471 5482 5494 5505 5507 5511 5514 5515 5523 5531 5533 5536 5526 5530 5540 5554 5565 5568 5559 5561 5597 5596 5600 5573 5583
5342 5336 5331 5324 5320 5322 5322 5323 5323 5324 5322 5320 5331 5358 5380 5379 5396 5405 5414 5420 5440 5455 5465 5474 5480 5492 5497 5497 5505 5509 5514 5519 5526 5523 5525 5519 5522 5546 5565 5576 5578 5580 5584 5599 5597 5587 5580
5328 5320 5317 5316 5315 5315 5316 5317 5318 5317 5314 5314 5328 5349 5369 5385 5390 5395 5412 5418 5434 5441 5457 5465 5472 5481 5487 5487 5491 5494 5501 5501 5513 5520 5520 5513 5513 5524 5547 5568 5580 5582 5588 5574 5580 5611 5611
5317 5315 5313 5311 5312 5312 5312 5313 5313 5312 5309 5313 5322 5338 5335 5359 5375 5394 5398 5420 5435 5444 5451 5451 5462 5467 5477 5474 5472 5477 5487 5481 5487 5496 5504 5506 5509 5509 5531 5547 5561 5565 5584 5585 5576 5608 5607
5314 5312 5311 5311 5311 5310 5309 5310 5310 5309 5309 5313 5318 5327 5323 5347 5363 5382 5406 5411 5415 5437 5447 5455 5450 5455 5450 5459 5467 5474 5478 5482 5487 5494 5500 5502 5508 5501 5511 5518 5532 5576 5594 5599 5593 5599 5602
5313 5313 5312 5311 5310 5309 5308 5307 5306 5307 5307 5307 5312 5314 5323 5337 5358 5376 5394 5407 5422 5420 5438 5443 5445 5440 5435 5440 5451 5464 5474 5475 5487 5494 5497 5502 5503 5496 5505 5521 5535 5555 5576 5579 5580 5582 5599
5314 5313 5313 5312 5311 5310 5308 5306 5305 5305 5306 5305 5309 5310 5302 5330 5353 5374 5384 5391 5395 5414 5424 5437 5436 5428 5428 5422 5430 5445 5466 5486 5495 5500 5507 5502 5503 5496 5508 5512 5517 5561 5568 5578 5582 5565 5586
5317 5317 5317 5316 5315 5313 5310 5308 5305 5304 5304 5304 5309 5306 5307 5317 5353 5364 5364 5367 5383 5395 5411 5427 5421 5418 5417 5416 5425 5448 5464 5484 5487 5496 5499 5495 5493 5494 5497 5504 5530 5558 5566 5567 5550 5539 5556
5324 5325 5326 5326 5326 5323 5316 5312 5308 5304 5304 5304 5307 5306 5309 5320 5345 5357 5366 5367 5379 5380 5393 5410 5406 5408 5406 5411 5433 5455 5466 5482 5490 5492 5496 5501 5490 5492 5496 5499 5506 5551 5553 5539 5533 5535 5535
5334 5335 5336 5336 5338 5332 5325 5316 5311 5307 5305 5302 5305 5310 5313 5317 5344 5352 5363 5371 5376 5377 5376 5388 5412 5396 5417 5420 5450 5459 5461 5477 5489 5489 5480 5477 5506 5502 5509 5517 5538 5544 5536 5532 5528 5523 5516